SL-14 R/B

Satellite information

Favourite Embed

Satellite Type and Status

ROCKET BODYIN ORBIT

Key statistics

Satellite SL-14 R/B at a glance.

Uptime

17359

Days in orbit

Revolutions

≈ 13.9

Per day

Orbit

LEO

Low Earth Orbit

Inclination

75.8

Latest

Satellite identification and parameters

Extended collection of information and parameters for SL-14 R/B.

Object identification

Identified? True

Debris? False

Object name: SL-14 R/B

International designator: 1977-123B

Object number (NORAD): 10541

Object ID (CCSDS): 10541

Country: COMMONWEALTH OF INDEPENDENT STATES (CIS)

Current information (Y/N): Y

RCS size: LARGE

Orbital parameters

Period: 103.653 minutes

Inclination: 75.8359 deg

SMA: 7309.382 km

Apoapsis: 1149.726 km

Periapsis: 712.768 km

RAAN: 260.4646 deg

Eccentricy: 0.0298902

Argument of periapsis: 211.6597 deg

Mean anomaly: 146.6261 deg

Mean motion: 13.8925433 rev/day

Mean motion (dot): 0.00000037 rev/day2

B* drag term: 0.000028727 1/REarth

Two-line elements (TLE)

Creation date: July 6, 2025, 6:05 p.m.

Reference frame: TEME

Reference center: EARTH

Epoch: July 6, 2025, 1:59 p.m. UTC

TLE line 0: 0 SL-14 R/B

TLE line 1: 1 10541U 77123B 25187.58296190 .00000037 00000-0 28727-4 0 9994

TLE line 2: 2 10541 75.8359 260.4646 0298902 211.6597 146.6261 13.89254330408487

Live tracking on map

Real-time ground track for satellite SL-14 R/B.

In-orbit conjunctions

A list of the most updated potential collisions computed for object SL-14 R/B.

Target Orbit TCA Probability of collision Miss distance Type
FENGYUN 1C DEB SSO 2025-03-17 09:54:35 0.0001353569 619.0 (m) DEBRIS
SL-16 DEB LEO 2024-08-20 22:27:04 0.0001644102 903.0 (m) DEBRIS

Associated space launch

Dynamic simulator of the Tselina-D ELINT satellite

SL-14 R/B was lifted into orbit during the mission ‘Tsiklon-3 | EPN 03.0380 3’, on board a Tsiklon-3 space rocket.

The launch took place on Dec. 27, 1977, 8 a.m. from 32/2.

For more information about the launch, click the button.

Launch to space Tsiklon-3 | EPN 03.0380 3
Tsiklon-3 | EPN 03.0380 3

Agency: N/A

Status: Launch Successful

Launch date: Dec. 27, 1977, 8 a.m. UTC

Rocket: Tsiklon-3

Launch pad: 32/2

Location: Plesetsk Cosmodrome, Russian Federation

...

Latest news about this satellite

There are no fresh news available about this satellite. Check back as we update our databases every day.


Newsletter sign-up

Weekly statistics, charts and insights to help you stay on top of the space industry.